This is the latest recevied weather packets stored in our database for station/object FREPRT-WX. If no packets are shown the sender has not sent any weather packets the latest 10 day(s).
| Time | Temp. | Humidity | Pressure | Rain* | Wind** | Luminosity | Snow |
|---|---|---|---|---|---|---|---|
| 1778069744 | 4.44° C | 71% | 982.4 hPa | 0 mm | - | - | - |
| 1778068878 | 4.44° C | 71% | 982.4 hPa | 0 mm | - | - | - |
| 1778067943 | 3.89° C | 76% | 981.6 hPa | 0 mm | - | - | - |
| 1778067058 | 3.33° C | 76% | 981.6 hPa | 0 mm | - | - | - |
| 1778066140 | 2.78° C | 76% | 981.6 hPa | 0 mm | - | - | - |
| 1778065272 | 2.78° C | 76% | 981.6 hPa | 0 mm | - | - | - |
| 1778064340 | 2.78° C | 76% | 981 hPa | 0 mm | - | - | - |
| 1778063458 | 2.78° C | 76% | 981.5 hPa | 0 mm | - | - | - |
| 1778062541 | 2.78° C | 76% | 981.5 hPa | 0 mm | - | - | - |
| 1778061674 | 3.33° C | 76% | 981.5 hPa | 0 mm | - | - | - |
| 1778060741 | 3.33° C | 72% | 980.5 hPa | 0 mm | - | - | - |
| 1778059857 | 3.33° C | 72% | 980.9 hPa | 0 mm | - | - | - |
| 1778058940 | 3.89° C | 72% | 980.9 hPa | 0 mm | - | - | - |
| 1778058075 | 3.89° C | 72% | 980.9 hPa | 0 mm | - | - | - |
| 1778057140 | 3.89° C | 70% | 980.3 hPa | 0 mm | - | - | - |
| 1778056254 | 3.89° C | 73% | 980.9 hPa | 0 mm | - | - | - |
| 1778055339 | 3.89° C | 73% | 980.9 hPa | 0 mm | - | - | - |
| 1778054474 | 4.44° C | 73% | 980.9 hPa | 0 mm | - | - | - |
| 1778053539 | 4.44° C | 71% | 980.8 hPa | 0 mm | - | - | - |
| 1778052658 | 5° C | 71% | 980.9 hPa | 0 mm | - | - | - |
| 1778051739 | 5° C | 71% | 980.9 hPa | 0 mm | - | - | - |
| 1778050866 | 5.56° C | 71% | 980.9 hPa | 0 mm | - | - | - |
| 1778049939 | 5.56° C | 70% | 981.1 hPa | 0 mm | - | - | - |
| 1778049057 | 5.56° C | 70% | 981.1 hPa | 0 mm | - | - | - |
| 1778048140 | 5.56° C | 70% | 981.1 hPa | 0 mm | - | - | - |
* Rain latest hour (hover to see other rain measurements)
** Current wind speed in m/s (hover to see current wind gust speed)